STARLINK-5493, 55333

Orbit data source: Space-Track

STARLINK-5493, 55333 is a payload satellite owned by SpaceX/Seattle (US) in LEO that was launched on Thu, 26 Jan 2023 UTC via an FALCON 9 launch vehicle from the Air Force Eastern Test Range (AFETR). Payload-class satellites include a variety of spacecraft equipped with specific instruments for various scientific and technological missions. These include communications satellites like Starlink; space stations such as the ISS; scientific satellites like the Hubble; Earth observation satellites from companies like Planet Labs, Umbra, and HawkEye 360; GPS; miniature CubeSats for education and research; and military/defense satellites.

Loading next visibility...
Identifier
55333, 2023-013C
Orbit
LEO
Country
Flag of USUS
Related business
Manufacturer
SpaceX/Seattle
Mission
Operational Commercial Communications
Bus & Motor
STARLINK, Unknown motor
Mass
305 kg wet, ~290 kg dry
Launch date (UTC)
2023-01-26 (3 years ago)
Launch vehicle
FALCON 9
Launch site
Air Force Eastern Test Range (AFETR)
Object type
Payload
Rocket body
Debris
Shape & HBR
Box + 1 Pan, 10.1 m
Radar Cross Section
13.562 m², Large (>1 m²)

Expand to show TLE details & history
Last TLE update: 2 days ago

TLE from 2 days ago
0 STARLINK-5493
1 55333U 23013C   26171.10029741  .00000489  00000-0  27298-4 0  9992
2 55333  43.0039  85.2345 0001515 262.1407  97.9273 15.27579242187334
Epoch: 2026-06-20T02:24Z
TLE epoch observation values (Epoch: 2026-06-20T02:24:25.696Z)
Latitude
0.00001°
Longitude
140.80767°
Altitude
482.971 km
Speed
7.626 km/s
True Right ascension
05h 40m 56s
True Declination
0° 00' 00"
Sunlit
Object was in daylight at epoch
Visualization orbit readout
Latitude
Unknown
Longitude
Unknown
Altitude
Unknown
Speed
Unknown
Apparent Right ascension
Unknown
Apparent Declination
Unknown
Sunlit
N/A
Visualization observer readout
Local Sidereal Time
21:59:45
Azimuth
Unknown
Elevation
Unknown
Doppler factor
Unknown
Orbital elements
Apogee altitude
486.036 km
Perigee altitude
483.956 km
Semi-major axis
6,863.133 km
Eccentricity
0.00015
Inclination
43.0039°
RAAN
85.2345°
Arg. of periapsis
262.1407°
True anomaly
97.94449°
Mean anomaly
97.9273°
Eccentric anomaly
97.9359°
Mean motion
3.81733 °/min
Orbital period
94.31 mins
BSTAR
0.000027298
Loading maneuver chart data...
Computing Atmospheric mass density...
Loading historical data...
Loading historical data...
Loading historical data...
Loading historical data...
Loading historical data...
Loading historical data...
Loading historical data...

Documentation

Showing up to 5 results
|